Theta_e
309 307 308 308 307 309 311 312 312 309 308 309 309 309 308 308 308 307 308 309 310 311 311 310 310 308 306 304 299 302 308 309 309 310 312 312 312 311 310 310 307 307 306 305
309 308 308 307 307 310 310 310 309 308 307 308 306 308 308 305 304 305 306 307 308 309 310 310 309 307 306 301 300 307 309 310 310 311 311 312 312 312 311 311 307 306 305 305
309 311 307 309 309 310 310 309 307 310 306 305 304 309 308 306 307 309 308 307 307 307 309 310 308 306 304 299 303 309 309 310 311 312 312 311 312 311 312 313 309 306 306 307
309 308 309 309 310 309 312 307 308 308 308 309 305 313 308 306 304 306 308 307 307 308 309 309 307 306 300 300 307 310 309 310 311 312 311 312 312 311 312 311 309 307 307 308
309 308 309 310 310 308 311 307 307 308 308 308 307 307 310 304 307 308 307 307 307 308 309 308 306 304 299 301 307 308 310 310 311 313 312 313 313 311 312 312 313 312 312 315
306 307 307 308 305 306 305 307 306 305 307 309 305 307 313 306 306 306 307 307 308 308 308 306 305 301 299 302 306 308 309 310 312 314 314 313 313 313 313 315 316 317 317 316
308 307 306 306 307 306 306 307 311 311 309 314 307 308 311 308 305 305 305 308 308 307 307 307 305 300 299 302 306 308 310 311 313 313 313 314 314 313 313 314 317 317 317 319
307 306 306 305 307 307 305 307 312 313 311 309 307 310 312 306 305 306 307 308 309 307 307 306 303 299 300 302 307 308 310 310 312 313 314 314 314 314 314 315 316 317 318 318
307 308 305 305 305 306 306 307 305 306 298 306 308 306 306 303 303 306 305 306 308 308 308 306 303 299 299 302 307 308 310 311 311 312 313 314 315 314 315 315 317 318 316 317
307 310 306 305 305 305 305 303 307 304 309 309 309 307 311 308 306 302 304 304 307 308 307 306 303 299 299 302 307 307 309 311 311 312 312 313 315 315 314 315 315 316 317 318
305 308 307 306 306 306 305 305 305 304 305 310 309 313 304 306 306 304 302 306 307 308 308 306 303 300 299 303 306 307 309 310 310 311 311 313 314 314 314 314 315 316 317 316
306 306 305 306 304 303 304 304 304 308 307 304 306 309 306 303 304 304 304 307 307 308 308 306 303 301 299 302 305 306 308 309 310 311 314 314 315 314 314 314 314 315 316 317
305 302 300 305 304 302 305 303 304 303 304 305 309 310 304 303 303 304 305 306 308 307 307 305 303 302 299 300 305 307 307 309 309 312 313 313 314 314 314 314 314 314 315 316
307 305 308 311 312 304 305 304 304 305 304 307 306 309 309 306 305 304 305 306 306 307 307 306 304 303 300 299 304 307 307 308 308 311 311 312 313 314 314 314 315 314 315 315
306 304 304 306 305 305 306 305 304 306 307 309 310 306 310 310 306 306 307 307 307 307 307 307 306 305 302 299 302 306 307 307 307 309 310 310 311 313 313 313 313 313 313 312
305 307 302 303 304 304 303 304 304 305 306 304 306 307 307 306 307 304 306 307 307 307 308 308 308 307 304 302 300 305 307 307 307 308 308 309 310 310 311 311 312 311 311 308
306 304 308 306 303 301 310 307 303 303 302 306 307 309 306 307 303 304 307 308 308 309 308 308 308 308 307 305 302 302 307 307 307 307 307 307 307 308 309 309 309 309 309 308
306 306 308 304 302 318 313 303 305 308 307 304 305 306 306 306 307 308 308 308 309 308 307 307 308 308 307 306 303 300 307 307 308 307 307 307 306 305 305 306 306 307 307 304
307 308 312 312 311 310 310 303 304 307 310 307 305 308 308 306 306 307 309 307 305 305 306 306 306 307 307 307 305 300 304 307 307 308 307 307 306 304 302 300 299 299 299 298
306 308 312 308 315 314 309 303 302 305 311 307 307 308 306 304 306 303 305 305 305 305 305 306 306 306 307 307 306 302 300 306 307 307 307 307 306 304 300 298 297 296 296 295
308 308 311 309 312 304 304 300 303 309 312 304 306 307 303 304 305 306 305 305 306 307 305 305 306 306 307 307 306 305 301 301 306 305 304 304 303 301 299 298 297 296 295 294
310 311 310 311 312 312 299 301 308 306 303 301 304 306 305 305 306 306 307 307 306 307 307 306 304 305 306 306 306 305 304 303 301 305 305 304 302 301 299 298 297 296 295 294
303 296 300 308 309 302 301 301 301 301 301 301 303 305 306 305 305 305 306 307 307 306 306 306 305 304 305 305 306 306 306 305 302 300 303 304 302 301 300 298 297 296 296 295
294 293 295 298 299 296 298 297 297 300 302 302 303 303 303 304 305 305 305 306 306 305 305 305 305 304 303 304 305 305 304 304 304 301 300 300 302 301 300 298 297 296 296 296
291 292 295 294 296 296 297 294 294 298 302 305 305 306 307 305 305 305 305 304 304 304 304 304 303 303 303 303 303 303 304 303 302 302 301 299 299 301 301 299 297 297 297 297
292 293 298 297 295 293 293 292 294 294 297 297 301 307 308 305 303 303 303 303 303 303 303 304 304 304 304 304 304 302 302 303 303 302 302 301 299 298 300 300 298 297 296 296
Wind_Speed
2 3 6 8 5 4 5 2 4 4 1 3 7 14 21 20 21 23 27 31 29 24 17 15 14 12 11 15 19 21 24 19 18 17 19 22 20 18 15 14 14 8 6 9
3 6 4 6 4 3 2 0 5 4 0 1 6 22 21 7 6 12 19 23 27 26 21 15 13 10 10 14 17 20 18 17 17 19 18 18 20 17 12 14 12 3 2 6
6 1 4 5 4 4 2 4 3 4 6 1 7 9 5 1 4 5 9 11 12 21 22 16 12 8 9 12 15 18 14 14 15 20 20 15 16 16 17 16 10 3 4 5
4 2 4 3 3 5 2 2 3 1 4 3 4 6 8 3 7 3 4 5 8 16 19 14 11 6 7 9 12 16 13 14 16 19 18 16 18 17 17 16 8 5 5 8
4 7 4 3 4 6 3 2 3 2 2 3 2 2 8 4 4 2 4 5 10 15 18 15 10 6 5 6 8 13 14 12 12 14 15 14 14 15 16 19 18 19 18 20
2 0 4 4 3 2 7 4 4 3 2 2 2 3 6 3 4 2 2 9 14 17 17 14 10 6 3 5 7 10 12 10 11 11 14 12 13 14 13 14 17 14 17 19
1 2 2 4 5 3 3 4 3 4 2 5 2 1 10 5 6 4 7 15 16 17 17 14 10 6 2 3 6 7 10 9 10 10 12 9 10 13 10 15 15 19 17 21
7 4 8 5 5 6 5 6 5 6 2 4 3 6 6 5 2 9 5 11 17 19 17 14 11 7 3 2 3 6 9 8 7 8 10 10 10 10 9 8 14 16 19 17
6 3 1 1 2 3 6 5 3 6 2 2 4 7 9 4 5 3 8 11 20 21 19 16 12 8 4 1 2 4 8 7 6 2 7 8 8 9 8 9 11 16 17 18
7 3 1 1 2 2 3 4 3 2 3 4 4 5 5 3 6 8 7 15 18 20 20 18 14 10 6 2 2 3 5 8 5 4 6 7 7 8 10 10 10 13 14 15
6 4 1 3 6 8 3 3 2 2 4 5 1 5 6 4 3 8 9 16 19 22 21 18 15 12 9 5 4 4 3 7 9 8 9 8 7 5 9 14 14 11 10 10
5 5 4 6 1 2 3 7 8 4 5 2 2 6 1 4 3 3 9 16 17 20 20 18 16 14 11 8 6 7 6 3 8 8 10 10 11 10 9 12 12 15 14 12
9 2 3 5 3 2 5 6 4 3 2 6 6 5 1 3 4 5 6 10 17 20 21 21 20 18 15 12 9 9 9 7 6 9 12 9 9 10 10 11 15 14 14 14
7 4 7 9 5 6 7 8 10 6 3 4 6 6 5 5 5 4 6 9 14 20 22 22 22 20 18 15 12 12 12 10 8 9 11 9 12 16 15 18 19 20 20 20
3 6 5 3 2 3 5 7 16 18 17 8 4 13 15 13 7 10 10 7 9 16 22 25 25 24 22 20 17 16 17 14 13 12 11 12 13 13 16 19 21 20 19 19
1 1 3 2 3 1 4 8 12 16 13 10 15 22 11 20 12 5 10 12 14 18 21 23 24 27 27 26 22 18 21 18 17 15 14 16 16 17 18 20 22 23 24 26
4 4 3 4 2 3 9 15 12 7 7 15 15 21 5 2 6 13 21 19 18 21 22 25 28 29 31 30 27 24 23 22 21 19 18 19 19 19 20 20 21 22 24 24
7 6 1 2 1 7 6 1 10 22 14 17 8 13 8 8 8 8 11 17 23 24 25 29 30 27 29 31 32 27 26 26 26 24 22 22 21 20 21 22 22 23 23 22
9 9 4 5 5 8 4 5 8 10 13 19 20 25 13 8 3 15 20 10 10 11 8 10 20 24 25 28 35 34 32 31 31 30 27 26 24 22 21 22 22 23 24 24
10 10 8 3 5 10 3 4 3 5 8 10 22 25 8 12 4 4 7 2 2 5 7 9 8 18 27 26 34 40 38 36 38 36 31 28 27 25 24 22 22 22 22 22
6 5 11 6 4 7 6 4 7 5 5 6 14 14 16 7 5 13 7 3 5 6 7 7 6 9 18 26 28 41 43 45 38 37 35 31 29 28 26 25 25 24 23 23
8 8 5 5 5 9 7 6 7 2 10 9 4 12 21 10 10 4 2 4 7 8 8 8 6 6 11 20 26 33 47 43 42 42 40 37 33 32 31 31 29 29 28 27
3 5 5 4 5 6 10 10 18 18 10 9 3 6 19 10 2 2 2 5 7 7 7 9 9 7 10 15 22 30 33 43 45 45 45 42 38 37 37 36 35 34 33 33
8 5 5 10 8 17 21 39 41 34 24 12 5 3 3 6 11 8 7 7 6 6 7 7 8 8 8 10 16 21 25 32 44 47 47 47 46 43 41 41 40 39 39 38
8 12 4 10 7 18 21 38 41 37 24 22 18 10 7 7 7 7 9 7 7 6 7 9 6 6 5 8 11 14 20 26 31 41 47 49 48 48 46 46 46 46 44 42
8 4 2 3 11 3 17 36 35 32 35 27 19 14 8 7 7 7 7 8 8 9 10 10 10 10 10 11 10 13 17 23 27 32 40 47 50 50 51 50 49 48 46 45
Wind_Direction
160 126 203 209 189 146 127 169 264 266 338 288 254 277 280 277 245 249 249 250 242 239 237 239 251 263 288 310 319 330 340 351 351 347 354 359 358 354 348 338 343 296 242 228
66 223 202 114 145 158 141 212 273 278 321 252 321 293 283 282 246 249 255 254 246 236 227 229 242 257 294 312 328 337 348 354 353 356 1 359 0 360 345 353 2 352 183 199
167 177 135 141 136 139 186 179 231 247 319 70 321 290 323 276 274 259 271 266 238 220 211 216 226 251 296 315 339 347 359 359 359 1 5 13 9 5 7 12 13 49 115 188
222 152 153 146 169 137 248 189 161 20 31 274 15 284 305 316 304 256 266 233 198 186 192 205 213 246 292 329 353 358 1 354 355 12 29 13 22 24 27 24 31 72 119 140
215 156 156 164 206 167 196 126 120 99 88 357 335 72 270 344 314 242 216 186 171 171 185 195 200 230 286 338 351 5 7 353 2 26 37 26 35 54 38 71 65 81 96 111
99 148 168 172 75 88 148 94 58 61 81 345 219 141 282 229 208 203 189 181 164 168 178 189 198 211 273 331 340 358 6 10 23 41 45 35 43 69 76 75 85 89 109 132
46 218 151 139 88 37 100 88 334 340 11 227 119 50 249 246 217 195 186 193 183 181 184 192 200 198 214 313 347 9 14 24 46 48 48 53 49 71 91 106 76 108 113 125
164 271 167 188 198 173 177 166 166 226 226 286 54 234 252 206 272 216 200 201 194 193 195 198 204 201 197 308 12 25 29 35 71 54 65 79 82 79 92 94 112 122 123 138
156 256 73 74 146 144 180 193 163 108 62 33 226 275 285 231 256 184 195 200 202 200 200 199 205 206 195 253 71 51 32 42 83 83 86 89 109 113 91 104 118 136 132 135
197 108 327 151 111 36 161 166 94 358 187 251 274 277 245 268 239 207 207 213 208 204 202 202 205 209 198 191 157 97 43 47 71 94 120 112 132 136 129 121 117 131 139 148
143 112 302 130 212 176 136 204 72 125 171 180 261 261 213 248 263 207 212 209 204 203 203 203 205 207 203 189 167 166 134 63 58 94 106 122 137 132 117 137 131 131 141 149
184 114 165 200 276 196 188 191 178 156 209 241 142 274 215 249 318 212 212 213 209 209 205 205 209 212 207 195 172 169 165 114 68 96 113 117 126 135 125 134 134 138 137 152
180 204 79 356 348 355 213 198 188 119 93 199 152 253 224 228 257 240 229 221 215 211 209 209 212 215 211 201 187 179 175 180 127 107 103 121 137 158 162 142 137 143 157 165
154 160 174 187 189 136 191 195 185 164 150 187 222 258 238 205 206 175 232 238 225 217 216 217 219 219 215 208 197 185 174 180 180 152 138 133 126 135 142 134 134 132 134 135
205 201 171 227 141 167 203 180 187 203 211 196 234 218 249 265 232 223 202 207 209 216 219 223 226 224 218 212 204 192 182 185 194 178 167 158 154 146 135 135 138 139 140 139
266 266 108 284 162 260 286 228 198 213 227 270 268 277 248 257 248 187 205 212 233 234 233 230 232 231 224 219 212 200 191 186 189 183 172 160 153 147 144 139 142 143 144 143
168 154 120 261 111 107 283 213 192 190 195 206 222 239 203 248 206 231 239 257 258 262 249 240 239 236 230 223 216 206 195 189 192 189 178 171 162 157 158 154 152 151 153 156
170 160 228 181 129 213 260 14 195 204 205 210 239 247 204 207 208 210 237 266 276 274 263 248 244 241 235 226 217 207 198 193 191 193 187 183 179 176 175 173 170 170 170 172
178 177 182 191 212 308 233 195 158 171 243 216 221 244 219 179 210 278 273 237 267 278 279 267 244 236 235 229 218 209 202 199 196 197 195 192 192 191 191 190 186 184 183 183
188 206 202 155 201 211 269 338 149 118 266 222 207 233 175 149 199 246 161 161 332 327 286 277 269 227 223 223 217 212 208 205 203 200 200 200 200 202 201 202 203 199 197 195
179 190 209 197 224 280 241 156 154 130 260 341 215 220 155 172 168 146 171 222 315 334 334 318 292 251 227 218 215 214 213 213 208 204 204 206 209 210 209 208 210 212 209 208
175 179 181 204 211 263 157 93 170 292 337 353 327 173 171 158 147 130 259 288 301 294 291 297 303 269 235 224 220 219 219 219 217 213 212 213 214 214 213 214 213 214 216 218
76 41 299 209 199 11 225 26 4 350 8 6 48 179 161 131 114 315 293 316 325 310 302 289 284 283 253 235 229 227 226 222 223 222 221 220 220 219 217 217 217 216 218 219
346 15 331 331 15 346 33 9 1 351 321 329 51 87 146 320 313 308 316 328 334 336 338 308 282 293 281 254 241 237 230 228 226 227 227 226 224 224 222 221 221 223 222 223
281 308 291 284 299 333 1 355 347 339 338 314 291 296 318 316 308 303 310 315 310 315 329 340 316 284 294 281 271 249 235 228 229 231 231 231 229 228 228 226 226 226 228 230
192 226 292 295 354 325 307 328 331 336 340 337 321 300 317 333 318 293 295 298 298 303 305 298 300 298 283 272 268 259 247 235 229 230 231 231 232 231 231 231 232 232 233 235